Home   Weather   Imst   Past weeks

Flag for Austria Past Weather in Imst, Tyrol, Austria — Yesterday and Last 2 Weeks

Now
26 °F

Chilly.


Feels Like: 26 °F
Forecast: 20 / 37 °F
Wind: 2 mph from Southeast

Location: Landeck

Current Time: Jan 21, 2017 at 6:33:42 pm

Latest Report: Jan 21, 2017 at 5:00 pm


Visibility: N/A

Pressure: 30.46 "Hg (27.53 "Hg at 797m altitude)

Humidity: 71%

Dew Point: 17 °F

Location of ImstLocation

Past Weather in Imst — Graph

°F

Imst Temperature Yesterday

Maximum temperature yesterday: 31 °F (at 1:00 pm)
Minimum temperature yesterday: 15 °F (at 6:00 am)
Average temperature yesterday: 21 °F

High & Low Weather Summary for the Past Weeks

 TemperatureHumidityPressure
High39 °F (Jan 12, 2:00 pm)91% (Jan 9, 3:00 am)30.85 "Hg (Jan 9, 3:00 am)
Low3 °F (Jan 7, 4:00 am)44% (Jan 13, 3:00 pm)29.47 "Hg (Jan 13, 4:00 am)
Average22 °F76%30.31 "Hg
* Reported Jan 6 5:00 pm — Jan 21 5:00 pm, Imst, Weather by CustomWeather, © 2017

Note: Actual official high and low records may vary slightly from our data, if they occured in-between our weather recording intervals... More about our weather records

Advertising

Imst Weather History for the Previous 24 Hours

Scroll right to see more
 ConditionsComfort  
Time TempWeatherWind HumidityBarometerVisibility
5:00 pm
Sat, Jan 21
26 °FChilly.2 mph71%30.46 "HgN/A
4:00 pm27 °FChilly.3 mph66%30.45 "HgN/A
3:00 pm28 °FChilly.2 mph62%30.44 "HgN/A
2:00 pm33 °FChilly.1 mph52%30.42 "HgN/A
1:00 pm33 °FChilly.2 mph49%30.45 "HgN/A
12:00 pm28 °FChilly.2 mph58%30.51 "HgN/A
11:00 am24 °FCold.2 mph65%30.58 "HgN/A
10:00 am24 °FCold.2 mph63%30.58 "HgN/A
9:00 am22 °FCold.2 mph68%30.59 "HgN/A
8:00 am19 °FCold.3 mph74%30.61 "HgN/A
7:00 am21 °FCold.3 mph72%30.59 "HgN/A
6:00 am22 °FCold.2 mph70%30.57 "HgN/A
5:00 am22 °FCold.2 mph71%30.57 "HgN/A
4:00 am23 °FCold.2 mph71%30.57 "HgN/A
3:00 am21 °FCold.1 mph74%30.59 "HgN/A
2:00 am21 °FCold.2 mph75%30.58 "HgN/A
1:00 am22 °FCold.2 mph76%30.58 "HgN/A
12:00 am22 °FCold.1 mph78%30.58 "HgN/A
11:00 pm
Fri, Jan 20
21 °FCold.1 mph80%30.58 "HgN/A
10:00 pm22 °FCold.2 mph80%30.58 "HgN/A
9:00 pm22 °FCold.2 mph80%30.57 "HgN/A
8:00 pm23 °FCold.2 mph78%30.55 "HgN/A
7:00 pm22 °FCold.1 mph80%30.55 "HgN/A
6:00 pm22 °FCold.1 mph81%30.54 "HgN/A
Weather by CustomWeather, © 2017

See weather overviewHow to use our weather pages